Location: Tel Aviv
(32.0670°N, 34.7670°E)
Time: 12:09:39
(UTC+03:00)

Explorer 11/Cluster Stage 4 - Pass Details

Date: 15 September 2024
Orbit: 464 x 1208 km, 28.8° (Epoch: 06 October)

Event Time Altitude Azimuth Distance (km) Brightness Sun altitude
Rises 08:26:55 0° 258° (WSW) 3,688 9.5 24.8°
Reaches altitude 10° 08:29:27 10° 256° (WSW) 2,834 9.0 25.3°
Maximum altitude 08:36:33 68° 174° (S) 1,224 8.1 26.8°
Drops below altitude 10° 08:44:27 10° 94° (E) 3,141 11.2 28.4°
Sets 08:47:24 0° 92° (E) 4,107 11.4 29.0°
